EW9273 Weather Reports


Display with metric or nautical units.
time (UTC)temp
F
wind
direction
speed
MPH
gust
MPH
rain 1hr
in
rain 24hr
in
rain mn
in
humidity
%
barometer
mb
20260506002514 85 161 0.0 6.0 0.00 0.00 0.00 67 1002.9
20260506002014 85 100 1.0 6.0 0.00 0.00 0.00 67 1002.9
20260506001516 85 88 2.0 6.0 0.00 0.00 0.00 67 1002.8
20260506001014 85 92 2.0 9.0 0.00 0.00 0.00 67 1002.8
20260506000514 85 112 2.0 9.0 0.00 0.00 0.00 66 1002.7
20260506000013 86 78 1.0 7.0 0.00 0.00 0.00 66 1002.7
20260505235513 86 59 2.0 10.0 0.00 0.00 0.00 65 1002.6
20260505235015 87 70 1.0 9.0 0.00 0.00 0.00 65 1002.6
20260505234527 86 355 2.0 9.0 0.00 0.00 0.00 65 1002.5
20260505234011 87 74 3.0 7.0 0.00 0.00 0.00 64 1002.5
20260505233511 87 71 0.0 4.0 0.00 0.00 0.00 64 1002.5
20260505233016 87 104 0.0 4.0 0.00 0.00 0.00 64 1002.6
20260505232512 87 97 1.0 4.0 0.00 0.00 0.00 64 1002.5
20260505232012 87 94 1.0 7.0 0.00 0.00 0.00 63 1002.5
20260505231514 87 106 2.0 7.0 0.00 0.00 0.00 63 1002.5
20260505231011 88 69 1.0 6.0 0.00 0.00 0.00 63 1002.5
20260505230513 88 101 2.0 5.0 0.00 0.00 0.00 63 1002.5
20260505230014 88 167 1.0 6.0 0.00 0.00 0.00 63 1002.5
20260505225511 88 138 2.0 7.0 0.00 0.00 0.00 63 1002.4
20260505225010 88 73 3.0 8.0 0.00 0.00 0.00 63 1002.4
20260505224510 87 157 4.0 8.0 0.00 0.00 0.00 62 1002.4
20260505224010 87 143 3.0 10.0 0.00 0.00 0.00 62 1002.5
20260505223508 87 186 4.0 10.0 0.00 0.00 0.00 62 1002.5
20260505223011 87 168 2.0 7.0 0.00 0.00 0.00 62 1002.6
20260505222507 87 175 2.0 9.0 0.00 0.00 0.00 63 1002.5
20260505222007 87 123 4.0 9.0 0.00 0.00 0.00 62 1002.7
20260505221507 87 149 4.0 8.0 0.00 0.00 0.00 63 1002.7
20260505221006 87 250 2.0 5.0 0.00 0.00 0.00 62 1002.9
20260505220505 87 140 2.0 6.0 0.00 0.00 0.00 63 1002.8
20260505220009 87 117 1.0 10.0 0.00 0.00 0.00 64 1002.9
20260505215505 87 105 3.0 10.0 0.00 0.00 0.00 63 1002.8
20260505215006 86 142 3.0 9.0 0.00 0.00 0.00 64 1002.8
20260505214504 85 188 3.0 8.0 0.00 0.00 0.00 65 1003.0
20260505214002 86 181 4.0 11.0 0.00 0.00 0.00 64 1003.0
20260505213503 86 165 4.0 11.0 0.00 0.00 0.00 63 1003.2
20260505213001 87 138 2.0 10.0 0.00 0.00 0.00 62 1003.4
20260505212603 86 131 2.0 10.0 0.00 0.00 0.00 64 1003.5
20260505212100 86 188 3.0 7.0 0.00 0.00 0.00 64 1003.5
20260505211614 86 167 2.0 10.0 0.00 0.00 0.00 64 1003.6
20260505211058 86 159 4.0 10.0 0.00 0.00 0.00 63 1003.7
20260505210558 86 167 0.0 11.0 0.00 0.00 0.00 64 1003.7
20260505210058 85 173 5.0 12.0 0.00 0.00 0.00 64 1003.8
20260505205558 85 178 5.0 12.0 0.00 0.00 0.00 64 1003.8
20260505205058 87 160 2.0 9.0 0.00 0.00 0.00 63 1003.9
20260505204555 86 133 2.0 8.0 0.00 0.00 0.00 65 1003.9
20260505204056 85 250 4.0 8.0 0.00 0.00 0.00 64 1004.1
20260505203553 85 144 4.0 8.0 0.00 0.00 0.00 65 1004.3
20260505203054 86 123 3.0 8.0 0.00 0.00 0.00 64 1004.3
20260505202552 86 166 3.0 7.0 0.00 0.00 0.00 65 1004.4
20260505202055 84 185 0.0 8.0 0.00 0.00 0.00 67 1004.4
20260505201605 83 153 3.0 8.0 0.00 0.00 0.00 67 1004.6
20260505201052 84 147 2.0 9.0 0.00 0.00 0.00 67 1004.5
20260505200551 84 177 3.0 9.0 0.00 0.00 0.00 66 1004.6
20260505195552 84 182 1.0 5.0 0.00 0.00 0.00 67 1004.7
20260505195049 83 155 0.0 7.0 0.00 0.00 0.00 68 1004.7
20260505194600 83 126 1.0 7.0 0.00 0.00 0.00 68 1004.8
20260505194048 83 90 2.0 6.0 0.00 0.00 0.00 68 1004.9
20260505193548 83 138 2.0 7.0 0.00 0.00 0.00 67 1005.0
20260505193047 84 163 2.0 10.0 0.00 0.00 0.00 69 1005.0
20260505192545 83 171 3.0 10.0 0.00 0.00 0.00 69 1005.0
20260505192045 82 161 3.0 10.0 0.00 0.00 0.00 70 1005.2
20260505191545 82 171 2.0 6.0 0.00 0.00 0.00 69 1005.3
20260505191043 82 193 1.0 6.0 0.00 0.00 0.00 70 1005.4
20260505190543 81 163 4.0 14.0 0.00 0.00 0.00 70 1005.5
20260505190048 82 240 5.0 14.0 0.00 0.00 0.00 69 1005.6
20260505185542 81 244 3.0 8.0 0.00 0.00 0.00 70 1005.6
20260505185042 81 194 4.0 8.0 0.00 0.00 0.00 71 1005.6
20260505184542 81 213 3.0 8.0 0.00 0.00 0.00 70 1005.7
20260505184041 81 234 3.0 8.0 0.00 0.00 0.00 71 1005.7
20260505183540 81 150 4.0 9.0 0.00 0.00 0.00 71 1005.8
20260505183047 80 169 4.0 9.0 0.00 0.00 0.00 71 1005.9
20260505182540 80 203 3.0 10.0 0.00 0.00 0.00 71 1006.0
20260505182040 81 215 3.0 10.0 0.00 0.00 0.00 72 1005.9
20260505181541 80 153 4.0 10.0 0.00 0.00 0.00 72 1005.9
20260505181042 81 178 3.0 10.0 0.00 0.00 0.00 71 1005.9
20260505180538 80 154 3.0 10.0 0.00 0.00 0.00 72 1005.9
20260505180038 80 161 6.0 10.0 0.00 0.00 0.00 72 1006.0
20260505175536 79 213 4.0 9.0 0.00 0.00 0.00 73 1006.1
20260505175036 79 196 3.0 8.0 0.00 0.00 0.00 73 1006.1
20260505174536 79 171 4.0 10.0 0.00 0.00 0.00 74 1006.1
20260505174034 78 161 3.0 8.0 0.00 0.00 0.00 75 1006.1
20260505173536 78 173 4.0 9.0 0.00 0.00 0.00 75 1006.2
20260505173041 78 238 5.0 9.0 0.00 0.00 0.00 75 1006.3
20260505172532 78 213 4.0 10.0 0.00 0.00 0.00 75 1006.3
20260505172031 78 188 5.0 10.0 0.00 0.00 0.00 75 1006.3
20260505171534 78 208 5.0 10.0 0.00 0.00 0.00 76 1006.3
20260505171029 77 260 5.0 10.0 0.00 0.00 0.00 76 1006.2
20260505170528 77 267 2.0 14.0 0.00 0.00 0.00 77 1006.3
20260505170034 77 225 3.0 9.0 0.00 0.00 0.00 78 1006.2
20260505165526 76 215 3.0 9.0 0.00 0.00 0.00 78 1006.3
20260505165025 76 229 3.0 10.0 0.00 0.00 0.00 78 1006.3
20260505164524 76 130 5.0 10.0 0.00 0.00 0.00 79 1006.3
20260505164023 75 168 3.0 10.0 0.00 0.00 0.00 79 1006.3
20260505163521 75 200 3.0 10.0 0.00 0.00 0.00 80 1006.4
20260505163021 75 191 4.0 11.0 0.00 0.00 0.00 80 1006.4
20260505162520 75 185 5.0 10.0 0.00 0.00 0.00 80 1006.4
20260505162018 74 228 3.0 8.0 0.00 0.00 0.00 81 1006.4
20260505161525 74 140 2.0 10.0 0.00 0.00 0.00 81 1006.5
20260505161017 74 189 4.0 10.0 0.00 0.00 0.00 81 1006.4
20260505160517 74 190 4.0 10.0 0.00 0.00 0.00 81 1006.5
20260505153011 73 215 3.0 9.0 0.00 0.00 0.00 83 1006.4
20260505152511 73 183 3.0 9.0 0.00 0.00 0.00 83 1006.4
20260505152010 72 176 4.0 10.0 0.00 0.00 0.00 83 1006.4
20260505151510 72 207 4.0 10.0 0.00 0.00 0.00 83 1006.4
20260505151008 72 148 3.0 9.0 0.00 0.00 0.00 84 1006.3
20260505150507 72 186 3.0 9.0 0.00 0.00 0.00 84 1006.3
20260505140600 70 194 4.0 9.0 0.00 0.00 0.00 85 1006.4
20260505140119 70 175 4.0 9.0 0.00 0.00 0.00 85 1006.4
20260505124651 70 166 2.0 9.0 0.00 0.00 0.00 85 1006.1
20260505124050 70 234 5.0 12.0 0.00 0.00 0.00 85 1006.0
20260505123549 70 211 6.0 16.0 0.00 0.00 0.00 85 1005.9
20260505123048 70 170 4.0 16.0 0.00 0.00 0.00 85 1005.8
20260505122547 70 167 4.0 10.0 0.00 0.00 0.00 85 1005.8
20260505122047 70 177 5.0 10.0 0.00 0.00 0.00 85 1005.6
20260505121547 70 184 2.0 9.0 0.00 0.00 0.00 85 1005.6
20260505121047 70 209 3.0 9.0 0.00 0.00 0.00 85 1005.6
20260505120546 70 186 5.0 9.0 0.00 0.00 0.00 85 1005.6
20260505120051 70 220 4.0 8.0 0.00 0.00 0.00 85 1005.5
20260505115549 70 182 3.0 10.0 0.00 0.00 0.00 85 1005.4
20260505115046 70 162 4.0 10.0 0.00 0.00 0.00 85 1005.4
20260505114548 70 198 4.0 8.0 0.00 0.00 0.00 85 1005.4
20260505114045 70 217 3.0 8.0 0.00 0.00 0.00 85 1005.3
20260505113547 70 184 3.0 8.0 0.00 0.00 0.00 85 1005.3
20260505113045 70 143 3.0 10.0 0.00 0.00 0.00 85 1005.2
20260505112548 70 196 5.0 10.0 0.00 0.00 0.00 85 1005.2
20260505112044 70 155 5.0 10.0 0.00 0.00 0.00 85 1005.2
20260505111544 70 172 4.0 10.0 0.00 0.00 0.00 85 1005.2
20260505111045 70 172 1.0 9.0 0.00 0.00 0.00 85 1005.2
20260505110544 70 152 2.0 11.0 0.00 0.00 0.00 85 1005.3
20260505102039 70 179 5.0 11.0 0.00 0.00 0.00 85 1005.4
20260505101543 70 254 5.0 10.0 0.00 0.00 0.00 85 1005.4
20260505101040 70 215 3.0 12.0 0.00 0.00 0.00 85 1005.5
20260505100538 70 213 3.0 12.0 0.00 0.00 0.00 85 1005.5
20260505100041 70 205 4.0 12.0 0.00 0.00 0.00 85 1005.5
20260505095538 70 202 4.0 14.0 0.00 0.00 0.00 85 1005.6
20260505095037 69 165 5.0 13.0 0.00 0.00 0.00 85 1005.6
20260505094537 69 195 5.0 11.0 0.00 0.00 0.00 85 1005.7
20260505094036 69 150 4.0 11.0 0.00 0.00 0.00 85 1005.7
20260505093536 69 182 3.0 10.0 0.00 0.00 0.00 85 1005.8
20260505093036 69 167 4.0 10.0 0.00 0.00 0.00 85 1005.7
20260505092539 69 194 3.0 10.0 0.00 0.00 0.00 85 1005.7
20260505092035 69 164 2.0 8.0 0.00 0.00 0.00 85 1005.7
20260505091538 69 171 4.0 11.0 0.00 0.00 0.00 85 1005.7
20260505091034 69 177 4.0 18.0 0.00 0.00 0.00 85 1005.8
20260505090534 69 153 5.0 12.0 0.00 0.00 0.00 85 1005.7
20260505090036 69 208 2.0 14.0 0.00 0.00 0.00 85 1005.7
20260505085534 69 157 5.0 11.0 0.00 0.00 0.00 85 1005.6
20260505085033 69 216 4.0 11.0 0.00 0.00 0.00 85 1005.6
20260505084541 69 161 3.0 12.0 0.00 0.00 0.00 85 1005.8
20260505084031 69 236 3.0 11.0 0.00 0.00 0.00 85 1005.8
20260505083533 69 163 4.0 11.0 0.00 0.00 0.00 85 1005.9
20260505083030 69 152 3.0 6.0 0.00 0.00 0.00 85 1006.0
20260505082530 69 162 2.0 11.0 0.00 0.00 0.00 85 1006.3
20260505082030 69 153 5.0 11.0 0.00 0.00 0.00 85 1006.3
20260505081529 69 159 4.0 9.0 0.00 0.00 0.00 85 1006.2
20260505081027 69 145 3.0 11.0 0.00 0.00 0.00 85 1006.3
20260505080526 69 168 3.0 10.0 0.00 0.00 0.00 85 1006.4
20260505080027 69 184 4.0 7.0 0.00 0.00 0.00 85 1006.4
20260505075526 69 184 3.0 8.0 0.00 0.00 0.00 85 1006.3
20260505075030 69 177 4.0 8.0 0.00 0.00 0.00 84 1006.4
20260505074524 69 163 3.0 7.0 0.00 0.00 0.00 84 1006.5
20260505074023 69 191 1.0 8.0 0.00 0.00 0.00 84 1006.7
20260505073522 69 149 3.0 8.0 0.00 0.00 0.00 84 1006.7
20260505073033 69 160 4.0 10.0 0.00 0.00 0.00 84 1006.8
20260505072521 69 173 3.0 10.0 0.00 0.00 0.00 84 1006.9
20260505072020 69 152 2.0 12.0 0.00 0.00 0.00 84 1007.0
20260505071520 69 157 4.0 12.0 0.00 0.00 0.00 83 1007.2
20260505071020 69 149 3.0 14.0 0.00 0.00 0.00 83 1007.1
20260505070519 69 171 5.0 14.0 0.00 0.00 0.00 83 1007.1
20260505070029 69 164 4.0 10.0 0.00 0.00 0.00 83 1007.2
20260505065517 69 119 3.0 11.0 0.00 0.00 0.00 83 1007.3
20260505065017 69 130 5.0 11.0 0.00 0.00 0.00 83 1007.3
20260505064516 69 229 3.0 8.0 0.00 0.00 0.00 82 1007.3
20260505064015 69 160 4.0 9.0 0.00 0.00 0.00 82 1007.3
20260505063515 69 225 4.0 10.0 0.00 0.00 0.00 82 1007.3
20260505063015 69 155 4.0 12.0 0.00 0.00 0.00 82 1007.3
20260505062515 69 194 4.0 11.0 0.00 0.00 0.00 82 1007.3
20260505062013 69 155 4.0 11.0 0.00 0.00 0.00 82 1007.3
20260505061514 69 163 4.0 11.0 0.00 0.00 0.00 82 1007.5
20260505061011 70 200 4.0 11.0 0.00 0.00 0.00 82 1007.6
20260505060512 70 173 4.0 10.0 0.00 0.00 0.00 81 1007.6
20260505060013 70 133 4.0 9.0 0.00 0.00 0.00 81 1007.7
20260505055509 70 236 4.0 10.0 0.00 0.00 0.00 81 1007.6
20260505055008 70 186 3.0 10.0 0.00 0.00 0.00 81 1007.6
20260505054508 70 145 5.0 12.0 0.00 0.00 0.00 81 1007.7
20260505054006 70 163 4.0 12.0 0.00 0.00 0.00 81 1007.7
20260505053509 70 171 4.0 14.0 0.00 0.00 0.00 80 1007.5
20260505053005 70 155 3.0 14.0 0.00 0.00 0.00 80 1007.5
20260505052504 70 165 4.0 11.0 0.00 0.00 0.00 80 1007.6
20260505052005 71 164 2.0 15.0 0.00 0.00 0.00 80 1007.5
20260505051503 71 165 6.0 15.0 0.00 0.00 0.00 79 1007.4
20260505051001 71 178 4.0 10.0 0.00 0.00 0.00 79 1007.5
20260505050600 71 143 4.0 10.0 0.00 0.00 0.00 79 1007.5
20260505041600 72 157 5.0 12.0 0.00 0.00 0.00 77 1007.7
20260505041101 72 128 4.0 9.0 0.00 0.00 0.00 77 1007.7
20260505040600 72 159 4.0 11.0 0.00 0.00 0.00 77 1007.7
20260505040057 72 168 5.0 11.0 0.00 0.00 0.00 77 1007.7
20260505035557 73 109 2.0 10.0 0.00 0.00 0.00 77 1007.5
20260505035059 73 104 2.0 11.0 0.00 0.00 0.00 76 1007.4
20260505034556 73 148 3.0 11.0 0.00 0.00 0.00 76 1007.4
20260505034059 73 171 4.0 9.0 0.00 0.00 0.00 76 1007.4
20260505033600 73 175 4.0 9.0 0.00 0.00 0.00 76 1007.4
20260505033055 73 156 2.0 9.0 0.00 0.00 0.00 76 1007.3
20260505032554 73 142 4.0 9.0 0.00 0.00 0.00 75 1007.4
20260505032054 73 156 3.0 12.0 0.00 0.00 0.00 75 1007.5
20260505031605 74 180 5.0 14.0 0.00 0.00 0.00 75 1007.4
20260505031055 74 161 3.0 8.0 0.00 0.00 0.00 74 1007.4
20260505030555 74 163 3.0 7.0 0.00 0.00 0.00 74 1007.6
20260505030055 74 142 2.0 4.0 0.00 0.00 0.00 74 1007.7
20260505025554 74 137 1.0 5.0 0.00 0.00 0.00 74 1007.6
20260505025053 74 178 2.0 8.0 0.00 0.00 0.00 74 1007.6
20260505024603 74 180 3.0 8.0 0.00 0.00 0.00 73 1007.5
20260505024053 74 171 3.0 6.0 0.00 0.00 0.00 73 1007.3
20260505023553 74 175 1.0 6.0 0.00 0.00 0.00 73 1007.3
20260505023054 75 139 2.0 6.0 0.00 0.00 0.00 72 1007.2
20260505022553 75 153 1.0 4.0 0.00 0.00 0.00 72 1007.3
20260505022053 75 169 1.0 7.0 0.00 0.00 0.00 71 1007.2
20260505021555 75 130 2.0 7.0 0.00 0.00 0.00 71 1007.2
20260505021055 75 147 1.0 2.0 0.00 0.00 0.00 70 1007.0
20260505020552 75 147 0.0 5.0 0.00 0.00 0.00 70 1006.9
20260505020052 76 147 0.0 5.0 0.00 0.00 0.00 69 1006.9
20260505015552 76 159 2.0 6.0 0.00 0.00 0.00 69 1006.8
20260505015053 76 163 2.0 6.0 0.00 0.00 0.00 69 1006.8
20260505014606 76 151 1.0 7.0 0.00 0.00 0.00 69 1006.8
20260505014051 76 166 1.0 7.0 0.00 0.00 0.00 68 1006.8
20260505013552 77 171 3.0 10.0 0.00 0.00 0.00 68 1006.8
20260505013052 77 159 2.0 11.0 0.00 0.00 0.00 68 1006.8
20260505012653 77 133 2.0 11.0 0.00 0.00 0.00 68 1006.8
20260505012050 77 163 3.0 10.0 0.00 0.00 0.00 68 1006.7
20260505011559 77 186 3.0 10.0 0.00 0.00 0.00 68 1006.7
20260505011049 78 147 4.0 9.0 0.00 0.00 0.00 68 1006.7
20260505010549 78 194 3.0 10.0 0.00 0.00 0.00 67 1006.7
20260505010049 78 166 4.0 10.0 0.00 0.00 0.00 67 1006.7
20260505005549 78 176 3.0 11.0 0.00 0.00 0.00 67 1006.7
20260505005052 78 138 4.0 12.0 0.00 0.00 0.00 67 1006.6
20260505004549 78 139 1.0 9.0 0.00 0.00 0.00 66 1006.5
20260505004048 79 175 2.0 11.0 0.00 0.00 0.00 66 1006.4
20260505003552 79 146 4.0 11.0 0.00 0.00 0.00 65 1006.4
20260505003047 79 123 3.0 9.0 0.00 0.00 0.00 65 1006.4